Location: Mexico
(19.4000°N, 99.1500°W)
Time: 09:37:30
(UTC-06:00)

ISS - Pass Details

Date: 22 January 2018
Orbit: 402 x 407 km, 51.6° (Epoch: 21 May)

Event Time Altitude Azimuth Distance (km) Brightness Sun altitude
Rises 19:42:44 0° 247° (WSW) 2,301 1.6 -18.7°
Reaches altitude 10° 19:45:15 10° 267° (W) 1,443 0.1 -19.2°
Maximum altitude 19:47:34 18° 313° (NW) 1,055 -1.4 -19.8°
Enters shadow 19:49:00 14° 346° (NNW) 1,218 -1.4 -20.1°
